When you browse on this site, cookies collect data to enhance your experience and personalize the content and advertising you see.
Visit our Privacy Policy to learn more. By continuing to use the site, you agree to this use of cookies and data.
  • In Sweden
  • List of Countries
  • For 7 days
  • Water Temperature
  • Satellite Maps
  • Weather Map
  • Weather Widgets
  • user-avatar
    Login

    Hourly Weather Biskira

    Today, 17 July, Wednesday

    Time Temperature Precipitation Wind Pressure Humidity
    00:00 +32°C° 0 mm 2 mps 752 mmHg 24%
    01:00 +31°C° 0 mm 2 mps 751 mmHg 26%
    02:00 +31°C° 0 mm 2 mps 751 mmHg 28%
    03:00 +30°C° 0 mm 2 mps 751 mmHg 30%
    04:00 +30°C° 0 mm 3 mps 751 mmHg 33%
    05:00 +30°C° 0 mm 4 mps 751 mmHg 35%
    06:00 +30°C° 0 mm 5 mps 752 mmHg 37%
    07:00 +32°C° 0 mm 5 mps 752 mmHg 35%
    08:00 +33°C° 0 mm 5 mps 752 mmHg 34%
    09:00 +33°C° 0 mm 4 mps 752 mmHg 33%
    10:00 +35°C° 0 mm 4 mps 752 mmHg 31%
    11:00 +36°C° 0 mm 3 mps 751 mmHg 28%
    12:00 +37°C° 0 mm 3 mps 751 mmHg 26%
    13:00 +38°C° 0 mm 2 mps 751 mmHg 24%
    14:00 +39°C° 0 mm 2 mps 750 mmHg 22%
    15:00 +40°C° 0 mm 2 mps 749 mmHg 21%
    16:00 +40°C° 0 mm 2 mps 749 mmHg 20%
    17:00 +40°C° 0 mm 3 mps 749 mmHg 20%
    18:00 +41°C° 0 mm 4 mps 749 mmHg 19%
    19:00 +40°C° 0 mm 3 mps 749 mmHg 20%
    20:00 +39°C° 0 mm 2 mps 750 mmHg 21%
    21:00 +37°C° 0 mm 1 mps 750 mmHg 22%
    22:00 +38°C° 0 mm 2 mps 750 mmHg 22%
    23:00 +38°C° 0 mm 3 mps 750 mmHg 23%

    Tomorrow, 18 July, Thursday

    Time Temperature Precipitation Wind Pressure Humidity
    00:00 +37°C° 0 mm 4 mps 750 mmHg 23%
    01:00 +36°C° 0 mm 5 mps 749 mmHg 26%
    02:00 +35°C° 0 mm 6 mps 749 mmHg 29%
    03:00 +34°C° 0 mm 7 mps 749 mmHg 32%
    04:00 +34°C° 0 mm 6 mps 749 mmHg 32%
    05:00 +34°C° 0 mm 5 mps 749 mmHg 32%
    06:00 +34°C° 0 mm 4 mps 749 mmHg 31%
    07:00 +36°C° 0.1 mm 4 mps 750 mmHg 29%
    08:00 +37°C° 0.1 mm 5 mps 750 mmHg 28%
    09:00 +39°C° 0.1 mm 5 mps 750 mmHg 26%
    10:00 +40°C° 0 mm 5 mps 750 mmHg 24%
    11:00 +41°C° 0 mm 5 mps 750 mmHg 22%
    12:00 +42°C° 0 mm 5 mps 749 mmHg 20%
    13:00 +44°C° 0 mm 6 mps 749 mmHg 18%
    14:00 +44°C° 0 mm 6 mps 749 mmHg 16%
    15:00 +45°C° 0 mm 6 mps 748 mmHg 14%
    16:00 +44°C° 0 mm 6 mps 748 mmHg 14%
    17:00 +44°C° 0 mm 6 mps 749 mmHg 15%
    18:00 +42°C° 0 mm 5 mps 749 mmHg 15%
    19:00 +41°C° 0 mm 5 mps 749 mmHg 17%
    20:00 +40°C° 0 mm 5 mps 750 mmHg 20%
    21:00 +37°C° 0 mm 4 mps 751 mmHg 22%
    22:00 +36°C° 0 mm 4 mps 751 mmHg 24%
    23:00 +35°C° 0 mm 4 mps 751 mmHg 26%

    Day after tomorrow, 19 July, Friday

    Time Temperature Precipitation Wind Pressure Humidity
    00:00 +34°C° 0 mm 3 mps 751 mmHg 28%
    01:00 +33°C° 0 mm 3 mps 751 mmHg 31%
    02:00 +32°C° 0 mm 2 mps 751 mmHg 34%
    03:00 +31°C° 0 mm 2 mps 751 mmHg 37%
    04:00 +31°C° 0 mm 2 mps 751 mmHg 35%
    05:00 +32°C° 0 mm 2 mps 751 mmHg 33%
    06:00 +33°C° 0 mm 3 mps 751 mmHg 31%
    07:00 +34°C° 0 mm 3 mps 752 mmHg 30%
    08:00 +35°C° 0 mm 4 mps 752 mmHg 29%
    09:00 +36°C° 0 mm 4 mps 752 mmHg 27%
    10:00 +37°C° 0 mm 4 mps 752 mmHg 26%
    11:00 +38°C° 0 mm 4 mps 752 mmHg 25%
    12:00 +40°C° 0 mm 4 mps 752 mmHg 24%
    13:00 +40°C° 0 mm 3 mps 751 mmHg 23%
    14:00 +40°C° 0 mm 3 mps 751 mmHg 21%
    15:00 +41°C° 0 mm 2 mps 750 mmHg 20%
    16:00 +41°C° 0 mm 2 mps 750 mmHg 20%
    17:00 +41°C° 0 mm 2 mps 750 mmHg 20%
    18:00 +41°C° 0 mm 2 mps 750 mmHg 20%
    19:00 +40°C° 0 mm 2 mps 751 mmHg 21%
    20:00 +39°C° 0 mm 3 mps 751 mmHg 22%
    21:00 +38°C° 0 mm 3 mps 751 mmHg 23%
    22:00 +38°C° 0 mm 3 mps 751 mmHg 24%
    23:00 +37°C° 0 mm 3 mps 751 mmHg 26%

    20 July, Saturday

    Time Temperature Precipitation Wind Pressure Humidity
    00:00 +36°C° 0 mm 2 mps 751 mmHg 27%
    01:00 +36°C° 0 mm 4 mps 751 mmHg 28%
    02:00 +35°C° 0 mm 5 mps 751 mmHg 29%
    03:00 +34°C° 0 mm 7 mps 751 mmHg 30%
    04:00 +34°C° 0 mm 7 mps 751 mmHg 33%
    05:00 +33°C° 0 mm 6 mps 752 mmHg 36%
    06:00 +33°C° 0 mm 6 mps 752 mmHg 39%
    07:00 +34°C° 0 mm 6 mps 752 mmHg 36%
    08:00 +35°C° 0 mm 6 mps 753 mmHg 32%
    09:00 +36°C° 0 mm 7 mps 753 mmHg 29%
    10:00 +38°C° 0 mm 6 mps 753 mmHg 27%
    11:00 +39°C° 0 mm 5 mps 753 mmHg 25%
    12:00 +40°C° 0 mm 4 mps 753 mmHg 23%
    13:00 +40°C° 0 mm 3 mps 752 mmHg 22%
    14:00 +42°C° 0 mm 3 mps 751 mmHg 21%
    15:00 +41°C° 0 mm 2 mps 751 mmHg 20%
    16:00 +41°C° 0 mm 2 mps 751 mmHg 20%
    17:00 +41°C° 0 mm 2 mps 751 mmHg 20%
    18:00 +41°C° 0 mm 2 mps 751 mmHg 20%
    19:00 +40°C° 0 mm 2 mps 752 mmHg 21%
    20:00 +39°C° 0 mm 2 mps 752 mmHg 22%
    21:00 +38°C° 0 mm 2 mps 752 mmHg 23%
    22:00 +37°C° 0 mm 2 mps 752 mmHg 24%
    23:00 +36°C° 0 mm 1 mps 752 mmHg 25%

    21 July, Sunday

    Time Temperature Precipitation Wind Pressure Humidity
    00:00 +35°C° 0 mm 1 mps 752 mmHg 26%
    01:00 +36°C° 0 mm 2 mps 752 mmHg 28%
    02:00 +35°C° 0 mm 4 mps 752 mmHg 29%
    03:00 +34°C° 0 mm 5 mps 752 mmHg 31%
    04:00 +34°C° 0 mm 5 mps 752 mmHg 34%
    05:00 +33°C° 0 mm 6 mps 753 mmHg 36%
    06:00 +33°C° 0 mm 6 mps 753 mmHg 39%
    07:00 +34°C° 0 mm 6 mps 753 mmHg 35%
    08:00 +36°C° 0 mm 6 mps 753 mmHg 32%
    09:00 +38°C° 0 mm 6 mps 754 mmHg 28%
    10:00 +39°C° 0 mm 5 mps 754 mmHg 26%
    11:00 +40°C° 0 mm 5 mps 753 mmHg 23%
    12:00 +42°C° 0 mm 4 mps 753 mmHg 21%
    13:00 +42°C° 0 mm 3 mps 753 mmHg 20%
    14:00 +43°C° 0 mm 3 mps 752 mmHg 19%
    15:00 +42°C° 0 mm 2 mps 752 mmHg 18%
    16:00 +42°C° 0 mm 2 mps 752 mmHg 18%
    17:00 +43°C° 0 mm 3 mps 752 mmHg 18%
    18:00 +43°C° 0 mm 3 mps 752 mmHg 18%
    19:00 +42°C° 0 mm 3 mps 752 mmHg 19%
    20:00 +40°C° 0 mm 3 mps 753 mmHg 21%
    21:00 +39°C° 0 mm 3 mps 753 mmHg 22%
    22:00 +37°C° 0 mm 5 mps 753 mmHg 26%
    23:00 +35°C° 0 mm 6 mps 753 mmHg 31%

    22 July, Monday

    Time Temperature Precipitation Wind Pressure Humidity
    00:00 +34°C° 0 mm 7 mps 753 mmHg 35%
    01:00 +33°C° 0 mm 6 mps 753 mmHg 35%
    02:00 +32°C° 0 mm 5 mps 753 mmHg 36%
    03:00 +32°C° 0 mm 4 mps 753 mmHg 36%
    04:00 +30°C° 0 mm 4 mps 753 mmHg 36%
    05:00 +30°C° 0 mm 4 mps 754 mmHg 37%
    06:00 +30°C° 0 mm 3 mps 754 mmHg 37%
    07:00 +32°C° 0 mm 4 mps 754 mmHg 34%
    08:00 +33°C° 0 mm 4 mps 754 mmHg 31%
    09:00 +35°C° 0 mm 4 mps 755 mmHg 28%
    10:00 +36°C° 0 mm 4 mps 754 mmHg 26%
    11:00 +37°C° 0 mm 4 mps 754 mmHg 25%
    12:00 +38°C° 0 mm 3 mps 753 mmHg 23%
    13:00 +39°C° 0 mm 3 mps 753 mmHg 22%
    14:00 +39°C° 0 mm 3 mps 752 mmHg 21%
    15:00 +40°C° 0 mm 2 mps 752 mmHg 21%
    16:00 +40°C° 0 mm 2 mps 752 mmHg 20%
    17:00 +40°C° 0 mm 2 mps 751 mmHg 20%
    18:00 +40°C° 0 mm 2 mps 751 mmHg 20%
    19:00 +39°C° 0 mm 2 mps 752 mmHg 22%
    20:00 +38°C° 0 mm 2 mps 752 mmHg 24%
    21:00 +37°C° 0 mm 2 mps 752 mmHg 25%
    22:00 +36°C° 0 mm 3 mps 752 mmHg 26%
    23:00 +35°C° 0 mm 4 mps 752 mmHg 27%
    Show more